Regional Weather Roundup
Issued by NWS Cleveland, OH

Home | Current Version | Previous Version | Graphics & Text | Print | Product List | Glossary On
Versions: 1 2 3 4 5 6 7 8 9 10 11 12 13 14 15 16 17 18 19 20 21 22 23 24 25 26 27 28 29 30 31 32 33 34 35 36 37 38 39 40 41 42 43 44 45 46 47 48 49 50
000
ASUS41 KCLE 270502
RWRCLE
OHIO REGIONAL WEATHER ROUNDUP
NATIONAL WEATHER SERVICE CLEVELAND, OH
1200 AM EST THU NOV 27 2014

NOTE: "FAIR" INDICATES FEW OR NO CLOUDS BELOW 12,000 FEET WITH NO
SIGNIFICANT WEATHER AND/OR OBSTRUCTIONS TO VISIBILITY.

OHZ001>008-015>018-024>027-034-035-043-044-270600-
   NORTHWEST OHIO

CITY           SKY/WX    TMP DP  RH WIND       PRES   REMARKS
DEFIANCE       CLOUDY    31  25  78 NW7       30.11R WCI  24
FINDLAY        CLOUDY    31  26  82 NW6       30.07R WCI  25
TOLEDO EXPRESS CLOUDY    30  25  81 NW6       30.09R WCI  24
TOLEDO EXEC    CLOUDY    32  25  75 NW8       30.09S WCI  25
LIMA           CLOUDY    31  26  82 N7        30.07R WCI  24
$$

OHZ009>014-019>023-028>033-038-089-270600-
   NORTHEAST OHIO

CITY           SKY/WX    TMP DP  RH WIND       PRES   REMARKS
CLE-HOPKINS    CLOUDY    32  28  85 SW6       30.05S WCI  26
CLE-LAKEFRONT  CLOUDY    35  29  78 SW5       30.03R
CUY CO. ARPT   NOT AVBL
LORAIN-ELYRIA  CLOUDY    32  31  96 W5        30.02F WCI  27
ASHTABULA      CLOUDY    34  30  85 CALM      30.02R
AKRON-CANTON   MOCLDY    30  24  78 W6        30.01S WCI  24
WOOSTER        MOCLDY    30  26  85 W6        30.03R WCI  24
MANSFIELD      MOCLDY    29  27  92 W5        30.02S WCI  24
YOUNGSTOWN     CLOUDY    33  28  81 W5        30.00R WCI  29
$$

OHZ042-051>053-060>062-070>072-077>081-270600-
  SOUTHWEST OHIO

CITY           SKY/WX    TMP DP  RH WIND       PRES   REMARKS
CINC-COVINGTON CLOUDY    30  22  72 N5        30.06R WCI  25
CINC-LUNKEN    CLOUDY    31  25  78 N6        30.09S WCI  25
HAMILTON       CLOUDY    29  23  78 CALM      30.09S
DAYTON         CLOUDY    28  23  81 N7        30.07S WCI  21
WRIGHT-PAT AFB NOT AVBL
DAYTON GENERAL MOCLDY    28  23  81 N5        30.05S WCI  23
WILMINGTON     MOCLDY    28  24  85 N6        30.05R WCI  22
$$

OHZ036-037-039>041-045>050-054>059-063>069-073>076-082>088-270600-
  CENTRAL AND SOUTHEAST OHIO

CITY           SKY/WX    TMP DP  RH WIND       PRES   REMARKS
COLUMBUS       CLOUDY    33  27  78 NW6       30.05R WCI  28
OSU AIRPORT    CLOUDY    32  26  78 NW6       30.05R WCI  26
BOLTON FIELD   NOT AVBL
RICKENBACK AFB NOT AVBL
NEWARK         CLOUDY    32  26  78 NW3       30.03R
MARION         CLOUDY    31  27  85 N7        30.05S WCI  24
LANCASTER      CLOUDY    33  27  78 CALM      30.05R
ZANESVILLE     CLOUDY    33  26  75 CALM      30.03S
NEW PHILLY     CLOUDY    35  26  69 NW5       30.04R
$$


USA.gov is the U.S. government's official web portal to all federal, state and local government web resources and services.